Volver al catálogo

SYNCOM 1

ActivoComunicacionesMEO
NORAD 553·PAYLOAD·🇺🇸 United States

Lanzado Feb 14, 1963 desde Cape Canaveral Space Force Station

Loading…

Próximos Pases (próximas 24 horas)

TLE

ActualizadoSource: Space-Track

Época: Sep 6, 2026, 07:22 UTC

1 00553U 63004A   26249.30758203 -.00000046  00000-0  00000-0 0  9998
2 00553  26.5401 271.0329 0808557 204.1764 151.8044  1.16483635 37004

Sigue SYNCOM 1 en tiempo real con AllMySat

Download on the App Store